Location: North Evanston
(42.0634°N, 87.6976°W)
Time: 22:12:32
(UTC+00:00)

Transit 2A - Pass Details

Date: 11 May 2026
Orbit: 595 x 949 km, 66.7° (Epoch: 5 June)

Event Time Altitude Azimuth Distance (km) Brightness Sun altitude
Rises 06:22:25 0° 336° (NNW) 3,230 10.0 -29.5°
Reaches altitude 10° 06:25:16 10° 349° (N) 2,235 9.2 -29.4°
Maximum altitude 06:29:32 27° 47° (NE) 1,317 7.6 -29.2°
Enters shadow 06:31:26 21° 83° (E) 1,507 7.7 -29.2°
Drops below altitude 10° 06:33:28 10° 105° (ESE) 2,051 - -29.1°
Sets 06:35:57 0° 118° (ESE) 2,913 - -29.0°
